Regional Weather Roundup
Issued by NWS

Home | Current Version | Previous Version | Text Only | Print | Product List | Glossary Off
Versions: 1 2 3 4 5 6 7 8 9 10 11 12 13 14 15 16 17 18 19 20 21 22 23 24 25 26 27 28 29 30 31 32 33 34 35 36 37 38 39 40 41 42 43 44 45 46 47 48 49 50

000
ASUS43 KDMX 061504
RWRIA

WEATHER ROUNDUP FOR IOWA
NATIONAL WEATHER SERVICE DES MOINES IA
  ISSUED BY NWS QUAD CITIES IA IL
900 AM CST FRI MAR 06 2015

NOTE: "FAIR" INDICATES FEW OR NO CLOUDS BELOW 12,000 FEET WITH NO
SIGNIFICANT WEATHER AND/OR OBSTRUCTIONS TO VISIBILITY.

* - THESE STATIONS ARE NOT NWS STATIONS...THUS NOT UNDER NWS
QUALITY CONTROL.  THEY ALSO DO NOT REPORT WEATHER SUCH
AS PRECIPITATION OR FOG.

IAZ001>003-012>014-020>022-031>034-043>046-061600-
   NORTHWEST IOWA

CITY           SKY/WX    TMP DP  RH WIND       PRES   REMARKS
CARROLL *      SUNNY     30  18  59 W13       30.16R WCI  20
CHEROKEE *     SUNNY     27  16  62 CALM      30.14R
DENNISON *     SUNNY     27  16  63 SW6       30.15S WCI  20
LE MARS *      SUNNY     28  16  59 S5        30.15R WCI  23
ORANGE CITY *  SUNNY     28  16  59 SW7       30.12R WCI  21
SHELDON *      SUNNY     28  16  59 W7        30.11S WCI  21
SIOUX CITY     SUNNY     28  15  58 SE5       30.17R WCI  23
SPENCER        SUNNY     27  14  58 W6        30.12R WCI  20
STORM LAKE *   SUNNY     27  16  63 W15       30.13R WCI  15
$$

IAZ055>058-069>071-079>083-090>094-061600-
   SOUTHWEST IOWA

CITY           SKY/WX    TMP DP  RH WIND       PRES   REMARKS
ATLANTIC *     MOSUNNY   30  19  64 SW9       30.19S WCI  22
AUDUBON *      SUNNY     28  18  64 SW9       30.18R WCI  20
CLARINDA *     SUNNY     34  21  60 SW13      30.25R WCI  25
COUNCIL BLFS * SUNNY     30  18  59 SW9       30.19R WCI  22
CRESTON *      SUNNY     30  19  64 SW15G21   30.20R WCI  19
HARLAN *       SUNNY     28  21  74 SW8       30.22S WCI  20
LAMONI         MOSUNNY   29  19  66 SW18      30.22R WCI  16
RED OAK *      SUNNY     32  19  59 SW10      30.22S WCI  24
SHENANDOAH *   SUNNY     34  19  55 SW13      30.24R WCI  25
$$

IAZ047>049-059>061-072>074-084-061600-
   CENTRAL IOWA

CITY           SKY/WX    TMP DP  RH WIND       PRES   REMARKS
AMES           SUNNY     25  16  68 SW10      30.19R WCI  15
ANKENY *       MOSUNNY   27  16  63 SW13      30.20S WCI  16
BOONE *        SUNNY     25  18  74 SW10      30.16R WCI  15
CHARITON *     MOSUNNY   28  16  59 SW15      30.22R WCI  17
DES MOINES     MOSUNNY   28  15  58 SW12      30.19F WCI  18
GRINNELL *     MOSUNNY   24  15  68 S14       30.20S WCI  12
KNOXVILLE *    MOSUNNY   27  14  59 SW13G21   30.20S WCI  16
MARSHALLTOWN   MOSUNNY   23  13  65 SW14      30.18S WCI  11
NEWTON *       MOSUNNY   25  16  68 SW13      30.20S WCI  13
PELLA *        MOSUNNY   28  19  69 SW13      30.23S WCI  17
PERRY *          N/A     28  20  74 SW9       30.18S WCI  19
$$

IAZ004>006-015-016-023>025-035-036-061600-
   NORTH CENTRAL IOWA

CITY           SKY/WX    TMP DP  RH WIND       PRES   REMARKS
ALGONA *       SUNNY     25  16  68 SW14      30.12S WCI  13
CLARION *      SUNNY     23  18  80 SW14      30.15S WCI  11
ESTHERVILLE    SUNNY     24  14  65 W14       30.09S WCI  12
FORT DODGE *   SUNNY     25  16  68 SW9       30.15S WCI  15
MASON CITY     SUNNY     19  12  74 SW12      30.14F WCI   7
FOREST CITY *  FAIR      23  12  63 SW8       30.12S WCI  14
WEBSTER CITY * SUNNY     25  16  68 SW14      30.14S WCI  13
IOWA FALLS *   FAIR      20  13  74 S12       30.17S HAZE    WCI   8
$$

IAZ007>011-017>019-026>030-037>042-050>054-066-061600-
   NORTHEAST IOWA

CITY           SKY/WX    TMP DP  RH WIND       PRES   REMARKS
CEDAR RAPIDS   SUNNY     18   9  68 S15       30.23S WCI   4
CHARLES CITY * SUNNY     16   9  73 S15       30.16S WCI   1
CLINTON *      SUNNY     12   5  73 S15       30.31F WCI  -4
DECORAH *      SUNNY     16   5  62 VRB7G18   30.17R WCI   6
DUBUQUE        MOSUNNY   10   3  73 S20       30.22S WCI  -9
MONTICELLO *   CLOUDY    14   5  67 S12       30.26F WCI   0
OELWEIN *      SUNNY     14   9  79 S17       30.20S WCI  -3
WATERLOO       SUNNY     18  10  71 S10       30.20S WCI   6
$$

IAZ064-065-067-068-078-061600-
   EAST CENTRAL IOWA

CITY           SKY/WX    TMP DP  RH WIND       PRES   REMARKS
DAVENPORT      MOSUNNY   19   6  57 S21       30.28F WCI   3
IOWA CITY      MOSUNNY   18   9  68 S7        30.29S WCI   9
MT. PLEASANT * MOSUNNY   22  11  62 S18G24    30.28S WCI   7
QUAD CITIES    MOSUNNY   18   5  57 S12       30.30F WCI   5
$$

IAZ062-063-075>077-085>089-095>099-061600-
   SOUTHEAST IOWA

CITY           SKY/WX    TMP DP  RH WIND       PRES   REMARKS
BURLINGTON     CLOUDY    21  10  62 S21G30    30.30F WCI   5
FAIRFIELD *    SUNNY     23  12  63 S16G22    30.25F WCI  10
FORT MADISON * PTSUNNY   19  10  68 S17G24    30.30F WCI   4
KEOKUK *       CLOUDY    23  12  63 S21       30.29F WCI   8
OSKALOOSA *    FAIR      26  16  65 SW16      30.23F WCI  13
CENTERVILLE *  FAIR      28  18  64 SW14G21   30.25S WCI  17
OTTUMWA        SUNNY     26  14  60 SW13      30.23F WCI  15
WASHINGTON *   MOSUNNY   21  14  73 S13       30.26F WCI   9
$$

ABBREVIATIONS USED IN REMARKS
   TC - TEMPERATURES IN CELSIUS
  WCI - WIND CHILL INDEX
   HX - HEAT INDEX
  VSB - VISIBILITY
$$



USA.gov is the U.S. government's official web portal to all federal, state and local government web resources and services.